Location: Forst
(46.9333°N, 15.4333°E)
Time: 14:55:47
(UTC+00:00)

Cosmos 2369 Rocket - Pass Details

Date: 01 December 2020
Orbit: 829 x 852 km, 71.0° (Epoch: 27 January)

Event Time Altitude Azimuth Distance (km) Brightness Sun altitude
Rises 16:07:32 0° 336° (NNW) 3,424 5.4 -9.4°
Reaches altitude 10° 16:10:06 10° 342° (NNW) 2,482 4.6 -9.8°
Maximum altitude 16:15:37 48° 56° (ENE) 1,094 2.4 -10.7°
Drops below altitude 10° 16:21:03 10° 131° (SE) 2,454 4.3 -11.5°
Sets 16:23:34 0° 137° (SE) 3,381 5.1 -11.9°
